| time (UTC) | temp F | wind direction | speed MPH | gust MPH | rain 1hr in | rain 24hr in | rain mn in | humidity % | barometer mb |
| 20260831150010 | 65 | 232 | 0.0 | 1.0 | 0.00 | 0.36 | 0.01 | 67 | 1009.6 |
| 20260831144520 | 63 | 203 | 0.0 | 0.0 | 0.00 | 0.36 | 0.01 | 75 | 1009.3 |
| 20260831143100 | 61 | 238 | 0.0 | 0.0 | 0.00 | 0.36 | 0.01 | 77 | 1009.2 |
| 20260831141600 | 60 | 203 | 0.0 | 0.0 | 0.00 | 0.36 | 0.01 | 81 | 1009.3 |
| 20260831140058 | 58 | 254 | 0.0 | 0.0 | 0.00 | 0.36 | 0.01 | 84 | 1009.2 |
| 20260831134558 | 57 | 221 | 0.0 | 0.0 | 0.00 | 0.36 | 0.01 | 86 | 1009.3 |
| 20260831133056 | 55 | 255 | 0.0 | 0.0 | 0.00 | 0.36 | 0.01 | 88 | 1009.3 |
| 20260831131552 | 54 | 217 | 0.0 | 0.0 | 0.00 | 0.36 | 0.01 | 90 | 1008.9 |
| 20260831130051 | 53 | 279 | 0.0 | 0.0 | 0.00 | 0.36 | 0.01 | 90 | 1008.8 |
| 20260831124548 | 0 | 0.0 | 0.0 | 0.00 | 0.36 | 0.01 | 1008.4 | ||
| 20260831123038 | 0 | 0.0 | 0.0 | 0.00 | 0.36 | 0.01 | 1008.3 | ||
| 20260831121535 | 0 | 0.0 | 0.0 | 0.00 | 0.36 | 0.01 | 1008.3 | ||
| 20260831120032 | 0 | 0.0 | 0.0 | 0.00 | 0.36 | 0.01 | 1008.1 | ||
| 20260831114525 | 0 | 0.0 | 0.0 | 0.00 | 0.36 | 0.01 | 1008.1 | ||
| 20260831113019 | 0 | 0.0 | 0.0 | 0.00 | 0.36 | 0.01 | 1008.1 | ||
| 20260831111526 | 0 | 0.0 | 0.0 | 0.00 | 0.36 | 0.01 | 1008.0 | ||
| 20260831110010 | 0 | 0.0 | 0.0 | 0.00 | 0.36 | 0.01 | 1008.0 | ||
| 20260831104506 | 0 | 0.0 | 0.0 | 0.00 | 0.36 | 0.01 | 1007.9 | ||
| 20260831103108 | 0 | 0.0 | 0.0 | 0.00 | 0.36 | 0.01 | 1007.8 | ||
| 20260831101559 | 0 | 0.0 | 0.0 | 0.00 | 0.36 | 0.01 | 1007.8 | ||
| 20260831100050 | 0 | 0.0 | 0.0 | 0.00 | 0.36 | 0.01 | 1007.3 | ||
| 20260831094546 | 0 | 0.0 | 0.0 | 0.00 | 0.36 | 0.01 | 1007.2 | ||
| 20260831093038 | 0 | 0.0 | 0.0 | 0.00 | 0.36 | 0.01 | 1007.3 | ||
| 20260831091535 | 0 | 0.0 | 0.0 | 0.00 | 0.36 | 0.01 | 1007.3 | ||
| 20260831090030 | 0 | 0.0 | 0.0 | 0.00 | 0.36 | 0.01 | 1007.4 | ||
| 20260831084524 | 0 | 0.0 | 0.0 | 0.00 | 0.36 | 0.01 | 1007.3 | ||
| 20260831083024 | 47 | 247 | 0.0 | 0.0 | 0.00 | 0.36 | 0.01 | 96 | 1007.3 |
| 20260831081517 | 48 | 252 | 0.0 | 0.0 | 0.01 | 0.41 | 0.01 | 95 | 1007.1 |
| 20260831080040 | 49 | 255 | 0.0 | 0.0 | 0.01 | 0.41 | 0.01 | 96 | 1007.1 |
| 20260831074515 | 49 | 259 | 0.0 | 0.0 | 0.01 | 0.41 | 0.01 | 97 | 1007.1 |
| 20260831073043 | 48 | 242 | 0.0 | 0.0 | 0.01 | 0.41 | 0.01 | 96 | 1006.7 |
| 20260831071542 | 48 | 277 | 0.0 | 0.0 | 0.00 | 0.40 | 0.00 | 95 | 1006.6 |
| 20260831070039 | 48 | 277 | 0.0 | 0.0 | 0.00 | 0.40 | 0.00 | 94 | 1006.7 |
| 20260831064535 | 50 | 226 | 0.0 | 0.0 | 0.00 | 0.40 | 0.00 | 93 | 1006.5 |
| 20260831063034 | 51 | 222 | 0.0 | 0.0 | 0.00 | 0.40 | 0.00 | 94 | 1006.6 |
| 20260831061533 | 51 | 239 | 0.0 | 0.0 | 0.00 | 0.40 | 0.00 | 93 | 1006.5 |
| 20260831060030 | 51 | 229 | 0.0 | 0.0 | 0.00 | 0.40 | 0.00 | 94 | 1006.9 |
| 20260831054529 | 50 | 212 | 0.0 | 0.0 | 0.00 | 0.40 | 0.00 | 94 | 1006.7 |
| 20260831053027 | 51 | 233 | 0.0 | 0.0 | 0.00 | 0.40 | 0.00 | 93 | 1006.4 |
| 20260831051526 | 53 | 234 | 0.0 | 0.0 | 0.00 | 0.40 | 0.00 | 91 | 1006.3 |
| 20260831050019 | 54 | 276 | 0.0 | 0.0 | 0.00 | 0.40 | 0.00 | 92 | 1006.4 |
| 20260831044517 | 53 | 264 | 0.0 | 0.0 | 0.00 | 0.40 | 0.00 | 93 | 1006.4 |
| 20260831043016 | 54 | 261 | 0.0 | 0.0 | 0.00 | 0.40 | 0.00 | 93 | 1006.4 |
| 20260831041515 | 53 | 242 | 0.0 | 0.0 | 0.00 | 0.40 | 0.00 | 94 | 1006.2 |
| 20260831040009 | 54 | 242 | 0.0 | 0.0 | 0.00 | 0.40 | 0.00 | 92 | 1006.2 |
| 20260831034505 | 55 | 243 | 0.0 | 0.0 | 0.00 | 0.40 | 0.00 | 89 | 1006.1 |
| 20260831033101 | 58 | 255 | 0.0 | 0.0 | 0.00 | 0.40 | 0.00 | 85 | 1005.5 |
| 20260831031608 | 60 | 266 | 0.0 | 0.0 | 0.00 | 0.40 | 0.00 | 85 | 1005.5 |
| 20260831030106 | 61 | 283 | 0.0 | 0.0 | 0.00 | 0.40 | 0.00 | 82 | 1005.5 |
| 20260831024553 | 62 | 323 | 0.0 | 0.0 | 0.00 | 0.40 | 0.00 | 80 | 1005.1 |
| 20260831023047 | 62 | 326 | 0.0 | 0.0 | 0.00 | 0.40 | 0.00 | 81 | 1005.0 |
| 20260831021551 | 61 | 320 | 0.0 | 0.0 | 0.00 | 0.40 | 0.40 | 87 | 1004.6 |
| 20260831020044 | 59 | 333 | 0.0 | 0.0 | 0.00 | 0.40 | 0.40 | 96 | 1003.9 |
| 20260831014541 | 59 | 302 | 0.0 | 0.0 | 0.00 | 0.40 | 0.40 | 96 | 1004.0 |
| 20260831013040 | 59 | 306 | 0.0 | 0.0 | 0.01 | 0.40 | 0.40 | 96 | 1004.3 |
| 20260831011539 | 59 | 338 | 0.0 | 0.0 | 0.04 | 0.40 | 0.40 | 96 | 1004.9 |
| 20260831010038 | 60 | 290 | 0.0 | 0.0 | 0.08 | 0.40 | 0.40 | 97 | 1005.3 |
| 20260831004502 | 61 | 322 | 0.0 | 1.0 | 0.28 | 0.40 | 0.40 | 96 | 1004.3 |
| 20260831003100 | 63 | 295 | 0.0 | 0.0 | 0.33 | 0.38 | 0.38 | 97 | 1004.4 |
| 20260831001547 | 63 | 284 | 0.0 | 0.0 | 0.30 | 0.35 | 0.35 | 96 | 1004.6 |
| 20260831000057 | 64 | 259 | 0.0 | 1.0 | 0.27 | 0.32 | 0.32 | 95 | 1003.6 |
| 20260830234548 | 65 | 266 | 0.0 | 1.0 | 0.07 | 0.12 | 0.12 | 90 | 1002.6 |
| 20260830233142 | 76 | 245 | 0.0 | 1.0 | 0.00 | 0.05 | 0.05 | 71 | 1001.7 |
| 20260830231542 | 77 | 119 | 0.0 | 0.0 | 0.00 | 0.05 | 0.05 | 73 | 1000.6 |
| 20260830230040 | 78 | 130 | 0.0 | 0.0 | 0.00 | 0.05 | 0.05 | 71 | 1000.2 |
| 20260830224547 | 78 | 141 | 0.0 | 0.0 | 0.00 | 0.05 | 0.05 | 70 | 1000.5 |
| 20260830223142 | 79 | 205 | 0.0 | 0.0 | 0.00 | 0.05 | 0.05 | 69 | 1000.4 |
| 20260830221544 | 79 | 154 | 0.0 | 0.0 | 0.00 | 0.05 | 0.05 | 68 | 1000.6 |
| 20260830220042 | 80 | 131 | 0.0 | 0.0 | 0.00 | 0.05 | 0.05 | 68 | 1000.9 |
| 20260830214537 | 81 | 128 | 0.0 | 1.0 | 0.00 | 0.05 | 0.05 | 67 | 1000.6 |
| 20260830213137 | 83 | 77 | 0.0 | 0.0 | 0.00 | 0.05 | 0.05 | 65 | 1000.6 |
| 20260830211542 | 82 | 89 | 0.0 | 0.0 | 0.00 | 0.05 | 0.05 | 67 | 1000.9 |
| 20260830210039 | 82 | 98 | 0.0 | 0.0 | 0.00 | 0.05 | 0.05 | 67 | 1001.4 |
| 20260830204542 | 83 | 99 | 0.0 | 0.0 | 0.00 | 0.05 | 0.05 | 67 | 1001.8 |
| 20260830203046 | 81 | 148 | 0.0 | 0.0 | 0.00 | 0.05 | 0.05 | 70 | 1002.0 |
| 20260830201504 | 82 | 71 | 0.0 | 0.0 | 0.00 | 0.05 | 0.05 | 68 | 1001.9 |
| 20260830200111 | 82 | 57 | 0.0 | 0.0 | 0.00 | 0.05 | 0.05 | 69 | 1002.1 |
| 20260830194527 | 81 | 118 | 0.0 | 0.0 | 0.00 | 0.05 | 0.05 | 71 | 1002.1 |
| 20260830193028 | 80 | 114 | 0.0 | 0.0 | 0.00 | 0.05 | 0.05 | 70 | 1002.3 |
| 20260830191557 | 79 | 132 | 0.0 | 0.0 | 0.00 | 0.05 | 0.05 | 75 | 1002.5 |
| 20260830190049 | 78 | 139 | 0.0 | 0.0 | 0.00 | 0.05 | 0.05 | 76 | 1002.5 |
| 20260830184520 | 78 | 139 | 0.0 | 0.0 | 0.00 | 0.05 | 0.05 | 78 | 1002.6 |
| 20260830183013 | 77 | 152 | 0.0 | 0.0 | 0.00 | 0.05 | 0.05 | 79 | 1003.0 |
| 20260830181511 | 79 | 148 | 0.0 | 0.0 | 0.00 | 0.05 | 0.05 | 77 | 1003.2 |
| 20260830180015 | 79 | 203 | 0.0 | 0.0 | 0.00 | 0.05 | 0.05 | 78 | 1003.3 |
| 20260830174508 | 78 | 191 | 0.0 | 0.0 | 0.00 | 0.05 | 0.05 | 78 | 1003.4 |
| 20260830173007 | 78 | 171 | 0.0 | 0.0 | 0.00 | 0.05 | 0.05 | 78 | 1003.6 |
| 20260830171505 | 78 | 138 | 0.0 | 0.0 | 0.00 | 0.05 | 0.05 | 78 | 1003.5 |
| 20260830170004 | 78 | 153 | 0.0 | 0.0 | 0.00 | 0.05 | 0.05 | 79 | 1003.7 |
| 20260830164503 | 78 | 120 | 0.0 | 0.0 | 0.00 | 0.05 | 0.05 | 78 | 1003.6 |
| 20260830163112 | 77 | 198 | 0.0 | 0.0 | 0.00 | 0.05 | 0.05 | 80 | 1003.5 |
| 20260830161552 | 76 | 221 | 0.0 | 0.0 | 0.00 | 0.05 | 0.05 | 83 | 1003.6 |
| 20260830160051 | 75 | 144 | 0.0 | 0.0 | 0.00 | 0.05 | 0.05 | 83 | 1003.7 |
| 20260830154550 | 75 | 185 | 0.0 | 0.0 | 0.00 | 0.05 | 0.05 | 85 | 1003.7 |
| 20260830153052 | 75 | 143 | 0.0 | 0.0 | 0.00 | 0.05 | 0.05 | 87 | 1003.9 |
| 20260830151545 | 74 | 163 | 0.0 | 0.0 | 0.00 | 0.05 | 0.05 | 87 | 1003.9 |